Toledo Metcalf, OH

8:52 AM EST on January 21, 2018 (GMT -0500)
Metcalf

Weather History for KTDZ - January, 2014

Change the Weather History Date:

Saturday, January 25, 2014

  Actual Average (KTOL) Record (KTOL)
Temperature  
Mean Temperature 20 °F -  
Max Temperature 30 °F 32 °F 71 °F (1950)
Min Temperature 8 °F 16 °F -16 °F (1897)
Degree Days  
Heating Degree Days 45    
Moisture  
Dew Point 14 °F    
Average Humidity 77    
Maximum Humidity 88    
Minimum Humidity 56    
Precipitation  
Precipitation 0.00 in - - ()
Sea Level Pressure  
Sea Level Pressure 29.50 in    
Wind  
Wind Speed 23 mph (West)    
Max Wind Speed 32 mph    
Max Gust Speed 40 mph    
Visibility 2 miles    
Events Fog , Snow    
Averages and records for this station are not official NWS values.
T = Trace of Precipitation, MM = Missing Value Source: NWS Daily Summary

Daily Weather History Graph

Daily Weather History Graph

Search for Another Location

Airport or City:

Trip Planner

Search our weather history database for the weather conditions in past years. The results will help you decide how hot, cold, wet, or windy it might be!

Date:

Astronomy

Jan. 25, 2014 Rise Set
Actual Time 7:52 AM EST 5:41 PM EST
Civil Twilight 7:22 AM EST 6:10 PM EST
Nautical Twilight 6:48 AM EST 6:44 PM EST
Astronomical Twilight 6:15 AM EST 7:17 PM EST
Moon 2:22 AM EST (1/25) 12:40 PM EST (1/25)
Length of Visible Light 10h 48m
Length of Day
9h 49m
Waning Crescent, 34% of the Moon is Illuminated
Jan 25
Waning Crescent
Jan 30
New
Feb 6
First Quarter
Feb 14
Full
Feb 22
Last Quarter

Hourly Weather History & Observations

Time (EST) Temp. Windchill Dew Point Humidity Pressure Visibility Wind Dir Wind Speed Gust Speed Precip Events Conditions
12:02 AM 19.0 °F 0.0 °F 12.9 °F 77% 29.62 in 1.0 mi SW 29.9 mph 39.1 mph 0.00 in Snow Light Snow
12:11 AM 19.0 °F 0.3 °F 12.9 °F 77% 29.61 in 1.2 mi SW 28.8 mph 40.3 mph 0.00 in Snow Light Snow
12:13 AM 19.0 °F 0.0 °F 12.9 °F 77% 29.61 in 1.0 mi SSW 29.9 mph 40.3 mph 0.00 in Snow Light Snow
12:53 AM 19.0 °F 1.3 °F 14.0 °F 81% 29.61 in 1.0 mi SSW 25.3 mph 40.3 mph 0.00 in Snow Light Snow
1:02 AM 19.0 °F 1.0 °F 14.0 °F 81% 29.57 in 1.5 mi SW 26.5 mph 34.5 mph 0.00 in Snow Light Snow
1:18 AM 19.0 °F 1.3 °F 14.0 °F 81% 29.56 in 2.0 mi SW 25.3 mph 35.7 mph 0.00 in   Overcast
1:28 AM 19.0 °F 0.6 °F 14.0 °F 81% 29.55 in 2.0 mi SW 27.6 mph 35.7 mph 0.00 in Snow Light Snow
1:36 AM 19.0 °F 1.0 °F 14.0 °F 81% 29.54 in 1.2 mi SSW 26.5 mph 38.0 mph 0.00 in Snow Light Snow
1:53 AM 19.0 °F 1.6 °F 14.0 °F 81% 29.56 in 1.2 mi SW 24.2 mph 36.8 mph 0.00 in Snow Light Snow
2:53 AM 19.9 °F 3.5 °F 15.1 °F 81% 29.52 in 1.8 mi SSW 21.9 mph 32.2 mph 0.00 in Snow Light Snow
3:15 AM 19.9 °F 3.2 °F 16.0 °F 85% 29.48 in 1.0 mi SSW 23.0 mph 33.4 mph 0.00 in Snow Light Snow
3:22 AM 19.9 °F 3.5 °F 16.0 °F 85% 29.47 in 1.2 mi SSW 21.9 mph 32.2 mph 0.00 in Snow Light Snow
3:35 AM 19.9 °F 2.5 °F 16.0 °F 85% 29.47 in 1.0 mi SW 25.3 mph 32.2 mph 0.00 in Snow Light Snow
3:53 AM 21.0 °F 4.6 °F 17.1 °F 85% 29.49 in 1.0 mi SW 23.0 mph 32.2 mph 0.00 in Snow Light Snow
4:05 AM 21.0 °F 4.3 °F 17.1 °F 85% 29.45 in 1.5 mi SW 24.2 mph 32.2 mph 0.00 in Snow Light Snow
4:10 AM 21.0 °F 5.0 °F 17.1 °F 85% 29.45 in 2.0 mi SW 21.9 mph 32.2 mph 0.00 in Snow Light Snow
4:23 AM 21.0 °F 4.3 °F 17.1 °F 85% 29.44 in 1.2 mi SW 24.2 mph 34.5 mph 0.00 in Snow Light Snow
4:41 AM 21.0 °F 4.3 °F 17.1 °F 85% 29.43 in 1.0 mi SW 24.2 mph 33.4 mph 0.00 in Snow Light Snow
4:53 AM 21.0 °F 4.3 °F 17.1 °F 85% 29.45 in 1.0 mi SW 24.2 mph 33.4 mph 0.00 in Snow Light Snow
5:10 AM 21.0 °F 5.4 °F 17.1 °F 85% 29.41 in 1.2 mi SW 20.7 mph 29.9 mph 0.00 in Snow Light Snow
5:20 AM 21.0 °F 4.6 °F 17.1 °F 85% 29.41 in 1.0 mi SW 23.0 mph 32.2 mph 0.00 in Snow Light Snow
5:40 AM 21.9 °F 5.8 °F 17.1 °F 82% 29.41 in 0.8 mi SW 23.0 mph 34.5 mph 0.00 in Snow Light Snow
5:45 AM 21.9 °F 6.2 °F 17.1 °F 82% 29.40 in 1.2 mi SW 21.9 mph 32.2 mph 0.00 in Snow Light Snow
5:53 AM 21.9 °F 6.5 °F 17.1 °F 82% 29.43 in 2.5 mi SW 20.7 mph 33.4 mph 0.00 in Snow Light Snow
6:24 AM 21.9 °F 6.5 °F 18.0 °F 85% 29.38 in 1.8 mi SW 20.7 mph - 0.00 in Snow Light Snow
6:53 AM 21.9 °F 5.8 °F 18.0 °F 85% 29.41 in 1.2 mi SW 23.0 mph 29.9 mph 0.00 in Snow Light Snow
7:53 AM 23.0 °F 7.6 °F 19.0 °F 85% 29.38 in 1.8 mi SW 21.9 mph 28.8 mph 0.00 in Snow Light Snow
8:05 AM 23.0 °F 8.3 °F 19.0 °F 85% 29.36 in 1.2 mi SW 19.6 mph 26.5 mph 0.00 in Snow Light Snow
8:17 AM 24.1 °F 10.6 °F 19.9 °F 84% 29.36 in 1.0 mi SW 17.3 mph 27.6 mph 0.00 in Snow Light Snow
8:26 AM 24.1 °F 10.1 °F 19.9 °F 84% 29.36 in 0.8 mi SW 18.4 mph 26.5 mph 0.00 in Snow Light Snow
8:34 AM 24.1 °F 9.4 °F 19.9 °F 84% 29.36 in 1.0 mi SW 20.7 mph 25.3 mph 0.00 in Snow Light Snow
8:42 AM 24.1 °F 12.0 °F 19.9 °F 84% 29.36 in 0.8 mi SW 13.8 mph 26.5 mph 0.00 in Snow Light Snow
8:53 AM 24.1 °F 11.5 °F 19.9 °F 84% 29.39 in 0.5 mi SW 15.0 mph - 0.00 in Fog , Snow Snow
9:25 AM 25.0 °F 13.1 °F 21.0 °F 85% 29.36 in 0.5 mi WSW 13.8 mph - 0.00 in Fog , Snow Snow
9:35 AM 25.0 °F 12.2 °F 21.9 °F 88% 29.36 in 1.2 mi WSW 16.1 mph 21.9 mph 0.00 in Snow Light Snow
9:51 AM 26.6 °F 15.7 °F 21.2 °F 80% 29.35 in 3.0 mi WSW 12.7 mph - 0.00 in Snow Light Snow
9:53 AM 26.1 °F 14.0 °F 21.9 °F 84% 29.38 in 4.0 mi WSW 15.0 mph - 0.00 in Snow Light Snow
10:12 AM 27.0 °F 14.7 °F 21.9 °F 81% 29.35 in 7.0 mi WSW 16.1 mph - 0.00 in Snow Light Snow
10:53 AM 28.0 °F 17.0 °F 21.9 °F 78% 29.38 in 10.0 mi WSW 13.8 mph - 0.00 in   Mostly Cloudy
11:53 AM 30.9 °F 18.1 °F 19.9 °F 64% 29.37 in 10.0 mi West 21.9 mph 26.5 mph N/A   Mostly Cloudy
12:03 PM 30.0 °F 14.9 °F 21.0 °F 69% 29.37 in 1.0 mi WNW 29.9 mph 36.8 mph 0.00 in Snow Light Snow
12:07 PM 26.1 °F 10.1 °F 21.0 °F 81% 29.37 in 0.2 mi WNW 27.6 mph 36.8 mph 0.00 in Snow Heavy Snow
12:17 PM 26.1 °F 11.3 °F 21.9 °F 84% 29.36 in 0.2 mi WNW 23.0 mph - 0.00 in Fog , Snow Light Snow
12:20 PM 26.1 °F 11.6 °F 21.9 °F 84% 29.36 in 0.2 mi WNW 21.9 mph - 0.00 in Fog , Snow Light Snow
12:33 PM 26.1 °F 11.6 °F 21.0 °F 81% 29.36 in 0.5 mi West 21.9 mph 29.9 mph 0.00 in Snow Snow
12:53 PM 26.1 °F 10.4 °F 21.0 °F 81% 29.39 in 0.2 mi West 26.5 mph 36.8 mph 0.00 in Snow Heavy Snow
1:02 PM 27.0 °F 12.2 °F 18.0 °F 69% 29.37 in 1.0 mi WNW 24.2 mph 34.5 mph 0.00 in Snow Light Snow
1:06 PM 27.0 °F 10.3 °F 19.0 °F 72% 29.38 in 0.8 mi NW 32.2 mph 36.8 mph 0.00 in Snow Light Snow
1:22 PM 24.1 °F 8.3 °F 17.1 °F 75% 29.39 in 0.8 mi NW 24.2 mph - 0.00 in Snow Light Snow
1:31 PM 24.1 °F 9.8 °F 16.0 °F 71% 29.40 in 1.2 mi NW 19.6 mph - 0.00 in Snow Light Snow
1:34 PM 24.1 °F 9.4 °F 15.1 °F 69% 29.40 in 3.0 mi NW 20.7 mph 27.6 mph 0.00 in Snow Light Snow
1:53 PM 24.1 °F 8.7 °F 16.0 °F 71% 29.43 in 1.0 mi NW 23.0 mph 31.1 mph 0.00 in   Overcast
2:02 PM 24.1 °F 9.4 °F 16.0 °F 71% 29.42 in 2.0 mi NNW 20.7 mph - 0.00 in Snow Light Snow
2:09 PM 23.0 °F 7.2 °F 16.0 °F 74% 29.42 in 1.0 mi NW 23.0 mph - 0.00 in Snow Light Snow
2:11 PM 23.0 °F 6.3 °F 16.0 °F 74% 29.43 in 0.8 mi NW 26.5 mph 29.9 mph 0.00 in Snow Light Snow
2:22 PM 21.9 °F 5.8 °F 15.1 °F 75% 29.43 in 1.2 mi NW 23.0 mph - 0.00 in Snow Light Snow
2:41 PM 21.9 °F 6.9 °F 12.0 °F 66% 29.45 in 1.8 mi NW 19.6 mph 33.4 mph 0.00 in   Overcast
2:47 PM 23.0 °F 7.6 °F 12.2 °F 63% 29.45 in 3.0 mi NW 21.9 mph - 0.00 in   Mostly Cloudy
2:53 PM 21.0 °F 4.3 °F 10.9 °F 65% 29.48 in 4.0 mi WNW 24.2 mph 31.1 mph 0.00 in   Haze
3:53 PM 21.0 °F 5.7 °F 9.0 °F 60% 29.54 in 5.0 mi WNW 19.6 mph 29.9 mph N/A   Haze
3:56 PM 19.9 °F 1.3 °F 8.1 °F 60% 29.51 in 1.8 mi WNW 29.9 mph 34.5 mph 0.00 in   Scattered Clouds
4:01 PM 19.9 °F 1.5 °F 10.0 °F 65% 29.53 in 0.8 mi WNW 28.8 mph 36.8 mph 0.00 in   Mostly Cloudy
4:14 PM 18.0 °F 1.3 °F 10.9 °F 74% 29.54 in 0.5 mi WNW 20.7 mph 32.2 mph 0.00 in Snow Snow
4:17 PM 19.0 °F 2.4 °F 10.0 °F 68% 29.54 in 1.0 mi WNW 21.9 mph - 0.00 in Snow Light Snow
4:20 PM 19.0 °F 2.7 °F 10.0 °F 68% 29.54 in 2.0 mi WNW 20.7 mph - 0.00 in Snow Light Snow
4:27 PM 19.0 °F 2.7 °F 8.1 °F 62% 29.55 in 3.0 mi WNW 20.7 mph 29.9 mph 0.00 in   Haze
4:36 PM 19.0 °F 0.3 °F 8.1 °F 62% 29.56 in 1.8 mi WNW 28.8 mph 35.7 mph 0.00 in   Mostly Cloudy
4:53 PM 18.0 °F -0.5 °F 8.1 °F 65% 29.60 in 2.0 mi WNW 26.5 mph 34.5 mph 0.00 in   Mostly Cloudy
5:06 PM 18.0 °F 2.2 °F 6.1 °F 60% 29.58 in 6.0 mi WNW 18.4 mph 28.8 mph 0.00 in   Haze
5:53 PM 16.0 °F 0.6 °F 3.0 °F 57% 29.65 in 10.0 mi WNW 16.1 mph - 0.00 in   Partly Cloudy
6:53 PM 15.1 °F -2.5 °F 1.9 °F 56% 29.71 in 10.0 mi WNW 20.7 mph - N/A   Scattered Clouds
7:53 PM 14.0 °F -2.0 °F 3.0 °F 62% 29.75 in 10.0 mi WNW 16.1 mph - N/A   Overcast
8:32 PM 12.9 °F -2.8 °F 6.1 °F 74% 29.74 in 2.5 mi NW 15.0 mph - 0.00 in Snow Light Snow
8:35 PM 12.9 °F -4.4 °F 7.0 °F 77% 29.74 in 1.0 mi WNW 18.4 mph - 0.00 in Snow Light Snow
8:43 PM 12.9 °F -2.8 °F 8.1 °F 81% 29.75 in 0.5 mi WNW 15.0 mph - 0.00 in Snow Snow
8:53 PM 12.9 °F -2.2 °F 8.1 °F 81% 29.78 in 1.0 mi WNW 13.8 mph - 0.00 in Snow Light Snow
9:02 PM 12.9 °F -1.6 °F 8.1 °F 81% 29.75 in 2.0 mi WNW 12.7 mph - 0.00 in Snow Light Snow
9:09 PM 12.9 °F -0.9 °F 8.1 °F 81% 29.75 in 1.8 mi WNW 11.5 mph - 0.00 in Snow Light Snow
9:42 PM 12.0 °F -2.0 °F 6.1 °F 77% 29.77 in 3.0 mi WNW 11.5 mph - 0.00 in Snow Light Snow
9:53 PM 12.0 °F -3.4 °F 3.0 °F 67% 29.80 in 10.0 mi WNW 13.8 mph - 0.00 in   Overcast
10:53 PM 10.0 °F -3.7 °F 1.9 °F 70% 29.83 in 10.0 mi WNW 10.4 mph - N/A   Overcast
11:53 PM 8.1 °F -0.5 °F 1.9 °F 76% 29.83 in 10.0 mi WSW 4.6 mph - N/A   Mostly Cloudy